Regional Weather Roundup
Issued by NWS Huntsville, AL

Home | Current Version | Previous Version | Text Only | Print | Product List | Glossary On
Versions: 1 2 3 4 5 6 7 8 9 10 11 12 13 14 15 16 17 18 19 20 21 22 23 24 25 26 27 28 29 30 31 32 33 34 35 36 37 38 39 40 41 42 43 44 45 46 47 48 49 50
000
ASUS44 KHUN 010410
RWRHUN

WEATHER ROUNDUP FOR THE TENNESSEE VALLEY
NATIONAL WEATHER SERVICE HUNTSVILLE AL
1100 PM CDT SAT APR 30 2016

ALZ001>004-010500-
NORTHWEST ALABAMA

CITY           SKY/WX    TMP DP  RH WIND       PRES   REMARKS
COURTLAND HCN    N/A     66 N/A N/A CALM        N/A
RUSSELLVILLE     N/A     64 N/A N/A MISG        N/A
SHOALS AIRPORT NOT AVBL
SHOALS TVA RES   N/A     66 N/A N/A MISG        N/A
$$

ALZ005>007-016-010500-
NORTH CENTRAL ALABAMA

CITY           SKY/WX    TMP DP  RH WIND       PRES   REMARKS
CULLMAN AG STN   N/A     68 N/A N/A CALM        N/A
DECATUR AP     PTCLDY    66  66 100 CALM      29.92R
HUNTSVILLE AP  CLOUDY    69  64  84 SE3       29.92R
HUN NWS/UAH      N/A     71  65  80 S3          N/A
MERIDIANVILLE  CLOUDY    66  63  88 CALM      29.92S
REDSTONE ARSN  CLOUDY    69  66  91 S2        29.91R
VINEMONT AP    FAIR      69  65  86 S6        29.95R
$$

ALZ008>010-010500-
NORTHEAST ALABAMA

CITY           SKY/WX    TMP DP  RH WIND       PRES   REMARKS
ALBERTVILLE    CLOUDY    72  70  94 S3        29.95R
FORT PAYNE     MOCLDY    72  61  68 SE3       29.94R
SCOTTSBORO AP  CLOUDY    68  68 100 CALM      29.95R
SCOTTSBORO HCN   N/A     68 N/A N/A MISG        N/A
VALLEY HEAD      N/A     72 N/A N/A MISG        N/A
$$

TNZ076-096-097-010500-
SOUTHEASTERN MIDDLE TENNESSEE

CITY           SKY/WX    TMP DP  RH WIND       PRES   REMARKS
TULLAHOMA      MOCLDY    66  66 100 CALM      29.94S
WINCHESTER     PTCLDY    66  64  94 SE5       29.94R
$$

...SURROUNDING SITES...

CITY           SKY/WX    TMP DP  RH WIND       PRES   REMARKS
ATLANTA        CLOUDY    69  64  84 S7        29.98S
ANNISTON       MOCLDY    76  65  68 SW6       29.95R
BIRMINGHAM     MOCLDY    74  66  76 S5        29.94R
CHATTANOOGA    CLOUDY    68  64  87 CALM      29.96S
DALTON         CLOUDY    66  66 100 S3        29.97S
GADSDEN        CLOUDY    74  67  78 CALM      29.94R
GOLDEN TRNGL   CLEAR     66  61  82 S7        29.89R
HALEYVILLE     FAIR      68  66  93 S3        29.93R
JACKSON TN     CLEAR     66  63  90 SE5       29.87R
MEMPHIS        PTCLDY    68  64  87 S5        29.85R
NASHVILLE      CLOUDY    67  64  90 SE3       29.90S
OXFORD MS      FAIR      64  64 100 S7        29.89S
ROME           CLOUDY    69  64  84 NE3       29.96R
SAVANNAH       CLOUDY    66  66 100 CALM      29.88S FOG
TUPELO         CLEAR     70  64  81 S10G18    29.89R
TUSCALOOSA     CLEAR     67  66  97 CALM      29.90R
$$

...GULF COAST WEATHER...

CITY           SKY/WX    TMP DP  RH WIND       PRES   REMARKS
GULFPORT       PTCLDY    72  67  84 SE9       29.89S
PASCAGOULA     CLOUDY    70  67  90 E6        29.91S
MOBILE         CLOUDY    69  69 100 S7        29.93R
GULF SHORES    LGT RAIN  68  68 100 SE9       29.92F
DESTIN         CLOUDY    77  76  96 SE10      29.98F
PANAMA CITY    CLOUDY    75  73  93 S6        29.99S
APPALACHICOLA  PTCLDY    74  73  97 SW3       30.00R
$$




USA.gov is the U.S. government's official web portal to all federal, state and local government web resources and services.